sat.trackr.live / text

‹ back to catalog

STARLINK-35490

NORAD 66204 · 2025-243AD

PAYLOAD ACTIVE UNKNOWN

§ Identity

Operator
Country
US
Launch date
2025-10-26
Launch site
AFETR
Launch vehicle
Mass (kg)
RCS (m²)

Purposes: comms

External: N2YO · Heavens-Above · Gunter

§ Orbital elements

Epoch: 2026-05-24T17:19:30.993600Z

Period
94.10 min
Inclination
53.1583°
Eccentricity
0.0000999
Mean motion
15.30235100 rev/d
Perigee alt
474.4 km
Apogee alt
475.8 km
Semi-major
6,853.2 km
B*
6.2000e-4
RAAN
252.1624°
Arg perigee
81.8720°
Mean anomaly
278.2394°
Rev number
3,229

§ Raw data

STARLINK-354901 66204U 25243AD  26144.72188650  .00018068  00000+0  62000-3 0  99912 66204  53.1583 252.1624 0000999  81.8720 278.2394 15.30235100 32291

JSON: /api/v1/satellites/66204 · /tle

For live sub-satellite position, see the globe view (requires WebGL).

§ Visibility from observer

Set your observer location to see the next 7 days of passes ≥ 10°. The values pass through the URL so the page stays shareable.

No JS? Fill the form by hand. The geolocation button needs JavaScript.